Weather History for KRCA - March, 2013

Change the Weather History Date:

Friday, March 29, 2013

  Actual Average Record
Temperature  
Mean Temperature 54 °F -  
Max Temperature 68 °F 47 °F 73 °F (2006)
Min Temperature 39 °F 27 °F 26 °F (1999)
Degree Days  
Heating Degree Days 12    
Growing Degree Days 4 (Base 50)    
Moisture  
Dew Point 29 °F    
Average Humidity 41    
Maximum Humidity 62    
Minimum Humidity 21    
Precipitation  
Precipitation 0.00 in - - ()
Sea Level Pressure  
Sea Level Pressure 30.00 in    
Wind  
Wind Speed 8 mph (WSW)    
Max Wind Speed 18 mph    
Max Gust Speed -    
Visibility 10 miles    
Events      
Averages and records for this station are not official NWS values.
T = Trace of Precipitation, MM = Missing Value Source: NWS Daily Summary

Daily Weather History Graph

Daily Weather History Graph

Search for Another Location

Airport or City:

Trip Planner

Search our weather history database for the weather conditions in past years. The results will help you decide how hot, cold, wet, or windy it might be!

Date:

Astronomy

Mar. 29, 2013 Rise Set
Actual Time 6:38 AM MDT 7:16 PM MDT
Civil Twilight 6:09 AM MDT 7:45 PM MDT
Nautical Twilight 5:35 AM MDT 8:19 PM MDT
Astronomical Twilight 4:59 AM MDT 8:55 PM MDT
Moon 10:26 PM MDT (3/29) 7:42 AM MDT (3/29)
Length of Visible Light 13h 35m
Length of Day
12h 37m
Waning Gibbous, 93% of the Moon is Illuminated
Mar 29
Waning Gibbous
Apr 2
Last Quarter
Apr 10
New
Apr 18
First Quarter
Apr 25
Full

Hourly Weather History & Observations

Time (MDT) Temp. Windchill Dew Point Humidity Pressure Visibility Wind Dir Wind Speed Gust Speed Precip Events Conditions
12:55 AM 41.5 °F 37.8 °F 27.5 °F 57% 30.09 in 10.0 mi SW 5.8 mph - N/A   Clear
1:55 AM 42.8 °F 39.3 °F 27.5 °F 55% 30.08 in 10.0 mi SSW 5.8 mph - N/A   Clear
2:55 AM 42.3 °F 37.3 °F 27.3 °F 56% 30.06 in 10.0 mi SW 8.1 mph - N/A   Partly Cloudy
3:55 AM 44.1 °F 39.0 °F 26.4 °F 50% 30.05 in 10.0 mi SW 9.2 mph - N/A   Clear
4:55 AM 41.0 °F 35.8 °F 26.6 °F 57% 30.03 in 10.0 mi SW 8.1 mph - N/A   Clear
5:55 AM 39.7 °F 35.6 °F 25.5 °F 57% 30.03 in 10.0 mi SSW 5.8 mph - N/A   Clear
6:55 AM 41.0 °F 38.0 °F 25.7 °F 55% 30.04 in 10.0 mi South 4.6 mph - N/A   Clear
7:55 AM 41.4 °F 39.4 °F 29.3 °F 62% 30.05 in 10.0 mi SSW 3.5 mph - N/A   Partly Cloudy
8:55 AM 49.8 °F - 30.9 °F 48% 30.04 in 10.0 mi South 4.6 mph - N/A   Partly Cloudy
9:55 AM 54.7 °F - 31.3 °F 41% 30.02 in 10.0 mi South 6.9 mph - N/A   Clear
10:55 AM 61.5 °F - 32.2 °F 33% 30.00 in 10.0 mi South 8.1 mph - N/A   Scattered Clouds
11:55 AM 65.5 °F - 31.8 °F 28% 29.97 in 10.0 mi South 8.1 mph - N/A   Overcast
12:55 PM 66.4 °F - 27.0 °F 23% 29.96 in 10.0 mi NNW 9.2 mph - N/A   Overcast
1:55 PM 63.5 °F - 27.5 °F 26% 29.97 in 10.0 mi SW 8.1 mph - N/A   Mostly Cloudy
2:55 PM 64.8 °F - 28.6 °F 26% 29.95 in 10.0 mi Calm Calm - N/A   Scattered Clouds
3:55 PM 67.1 °F - 28.8 °F 24% 29.93 in 10.0 mi Calm Calm - N/A   Scattered Clouds
4:55 PM 68.4 °F - 26.6 °F 21% 29.92 in 10.0 mi NW 10.4 mph - N/A   Partly Cloudy
5:55 PM 65.7 °F - 26.6 °F 23% 29.94 in 10.0 mi NNW 18.4 mph - N/A   Clear
6:55 PM 61.9 °F - 29.7 °F 30% 29.96 in 10.0 mi NNW 15.0 mph - N/A   Clear
7:55 PM 56.8 °F - 30.4 °F 37% 29.99 in 10.0 mi NNW 17.3 mph - N/A   Clear
8:55 PM 54.3 °F - 30.7 °F 41% 30.01 in 10.0 mi NNW 18.4 mph - N/A   Mostly Cloudy
9:55 PM 53.2 °F - 31.1 °F 43% 30.00 in 10.0 mi NNW 18.4 mph - N/A   Scattered Clouds
10:55 PM 48.4 °F - 30.7 °F 51% 30.01 in 10.0 mi NW 13.8 mph - N/A   Clear
11:55 PM 48.0 °F - 30.0 °F 50% 30.01 in 10.0 mi NNW 12.7 mph - N/A   Clear